Precipitable_Water
0.91 0.83 0.74 0.75 0.80 0.85 0.87 0.91 0.94 0.99 1.02 1.00 1.01 1.02 1.01 1.01 1.05 1.03 1.02 1.03 1.01 1.00 1.05 1.06 1.05 1.07 1.07 1.08 1.10 1.11 1.10 1.06 0.90 0.99 1.05 1.08 1.05 1.03 1.07 1.12 1.14 1.13 1.12
1.07 1.04 0.95 0.86 0.81 0.80 0.85 0.89 0.94 0.94 0.97 0.98 1.00 1.02 1.02 1.03 1.05 1.04 1.01 1.01 0.99 0.97 0.99 0.97 0.94 0.98 0.97 1.00 0.99 0.99 1.06 1.05 0.96 0.90 0.98 1.01 1.02 1.07 1.09 1.10 1.12 1.13 1.12
1.14 1.13 1.10 1.06 0.99 0.88 0.84 0.88 0.92 0.93 0.95 0.97 0.98 0.97 0.99 1.00 1.00 0.99 0.98 0.96 0.96 0.98 0.99 0.97 0.96 0.97 0.93 0.95 0.94 0.93 0.97 1.01 0.99 0.95 0.91 1.01 1.01 1.05 1.05 1.08 1.08 1.09 1.13
1.16 1.16 1.12 1.13 1.15 1.11 1.04 0.97 0.94 0.95 0.93 0.95 0.97 0.97 0.98 1.01 1.01 1.01 0.98 0.94 0.92 0.93 0.95 0.95 0.97 0.96 0.90 0.89 0.89 0.89 0.92 0.92 0.93 0.91 0.89 0.87 0.90 0.96 0.98 0.92 0.92 1.02 1.00
1.17 1.17 1.17 1.21 1.22 1.23 1.19 1.15 1.10 1.07 1.04 1.02 1.00 0.98 0.98 0.98 0.98 0.98 1.01 1.01 1.00 0.97 0.97 0.96 0.98 0.98 0.97 0.95 0.93 0.89 0.90 0.89 0.88 0.86 0.84 0.85 0.86 0.88 0.86 0.92 0.90 0.98 0.99
1.12 1.13 1.17 1.19 1.21 1.20 1.24 1.22 1.20 1.14 1.11 1.12 1.08 1.08 1.05 1.02 1.01 0.99 1.00 0.98 0.99 0.99 0.97 1.00 1.01 1.01 1.00 1.01 1.01 1.00 0.98 0.91 0.86 0.84 0.83 0.82 0.85 0.90 0.96 0.95 0.93 0.89 0.81
0.93 0.98 1.02 1.06 1.08 1.10 1.15 1.19 1.19 1.19 1.21 1.16 1.15 1.17 1.14 1.15 1.15 1.12 1.10 1.09 1.04 1.01 0.99 0.99 0.99 1.01 1.01 1.00 1.00 1.01 1.03 1.03 1.01 0.96 0.88 0.88 0.88 0.92 0.94 0.91 0.91 0.92 0.89
0.80 0.83 0.88 0.92 0.94 0.99 1.03 1.05 1.10 1.14 1.17 1.18 1.18 1.20 1.20 1.20 1.22 1.23 1.24 1.23 1.19 1.16 1.13 1.09 1.04 1.02 1.03 1.02 1.01 0.98 0.99 1.03 1.05 1.03 1.01 0.99 1.00 1.01 0.99 0.97 0.96 0.93 0.86
0.60 0.63 0.68 0.71 0.75 0.80 0.84 0.89 0.94 0.97 1.05 1.11 1.17 1.19 1.19 1.19 1.25 1.26 1.26 1.25 1.22 1.21 1.23 1.21 1.16 1.10 1.11 1.10 1.05 1.01 1.02 1.00 1.06 1.05 1.03 1.00 1.01 1.01 1.02 1.01 0.93 0.89 0.83
0.49 0.51 0.53 0.54 0.54 0.57 0.62 0.68 0.74 0.80 0.86 0.94 0.99 1.07 1.09 1.07 1.10 1.13 1.19 1.20 1.15 1.16 1.21 1.24 1.23 1.17 1.14 1.13 1.10 1.05 0.98 1.01 1.04 0.99 0.99 0.97 0.96 0.97 0.99 0.99 0.96 0.89 0.85
0.46 0.45 0.45 0.46 0.47 0.47 0.47 0.49 0.52 0.57 0.62 0.69 0.76 0.82 0.87 0.90 0.94 1.01 1.09 1.15 1.19 1.17 1.14 1.14 1.14 1.16 1.17 1.14 1.15 1.11 1.05 1.03 0.95 0.96 0.90 0.89 0.88 0.88 0.88 0.89 0.87 0.84 0.78
0.45 0.43 0.41 0.41 0.39 0.39 0.38 0.39 0.40 0.41 0.41 0.42 0.44 0.53 0.65 0.69 0.74 0.80 0.87 0.96 1.06 1.04 1.02 1.05 1.00 1.05 1.04 1.05 1.06 1.05 1.01 0.99 0.88 0.86 0.82 0.78 0.75 0.75 0.75 0.75 0.75 0.74 0.73
0.41 0.40 0.39 0.39 0.39 0.39 0.37 0.37 0.37 0.38 0.38 0.39 0.40 0.41 0.43 0.52 0.59 0.64 0.70 0.78 0.86 0.90 0.91 0.86 0.85 0.88 0.91 0.94 0.93 0.91 0.86 0.85 0.80 0.76 0.76 0.72 0.71 0.68 0.69 0.67 0.65 0.65 0.64
0.40 0.38 0.38 0.38 0.38 0.38 0.39 0.39 0.38 0.38 0.38 0.38 0.39 0.40 0.42 0.43 0.43 0.53 0.58 0.62 0.67 0.70 0.76 0.77 0.76 0.79 0.83 0.78 0.80 0.79 0.77 0.75 0.70 0.66 0.63 0.62 0.65 0.63 0.59 0.58 0.56 0.56 0.54
0.39 0.38 0.37 0.36 0.35 0.35 0.36 0.37 0.37 0.39 0.40 0.39 0.39 0.41 0.40 0.41 0.45 0.47 0.47 0.53 0.56 0.60 0.66 0.58 0.65 0.61 0.67 0.65 0.62 0.65 0.63 0.62 0.60 0.59 0.57 0.55 0.55 0.53 0.52 0.52 0.50 0.50 0.46
0.36 0.37 0.37 0.36 0.36 0.36 0.36 0.36 0.39 0.39 0.40 0.40 0.41 0.41 0.42 0.43 0.46 0.48 0.48 0.48 0.49 0.53 0.51 0.48 0.49 0.49 0.47 0.53 0.53 0.52 0.54 0.51 0.51 0.51 0.50 0.48 0.47 0.46 0.44 0.44 0.44 0.40 0.36
0.36 0.37 0.37 0.37 0.37 0.36 0.36 0.35 0.34 0.37 0.38 0.38 0.39 0.40 0.41 0.41 0.43 0.45 0.48 0.48 0.47 0.45 0.42 0.41 0.43 0.41 0.42 0.40 0.43 0.45 0.45 0.45 0.45 0.44 0.44 0.43 0.42 0.40 0.37 0.34 0.31 0.29 0.26
0.37 0.37 0.36 0.36 0.36 0.36 0.36 0.35 0.35 0.35 0.35 0.36 0.39 0.39 0.40 0.42 0.43 0.43 0.44 0.46 0.44 0.43 0.41 0.39 0.38 0.40 0.39 0.38 0.38 0.38 0.40 0.40 0.39 0.38 0.35 0.33 0.31 0.29 0.27 0.25 0.22 0.20 0.19
0.36 0.35 0.35 0.35 0.36 0.36 0.36 0.36 0.35 0.35 0.34 0.34 0.36 0.37 0.39 0.40 0.40 0.40 0.41 0.40 0.38 0.38 0.38 0.37 0.37 0.37 0.37 0.36 0.36 0.36 0.34 0.32 0.31 0.28 0.26 0.24 0.22 0.21 0.19 0.17 0.16 0.14 0.13
0.35 0.35 0.35 0.35 0.35 0.34 0.34 0.34 0.34 0.34 0.33 0.33 0.34 0.34 0.35 0.36 0.35 0.35 0.36 0.36 0.36 0.35 0.35 0.35 0.35 0.35 0.34 0.31 0.28 0.26 0.24 0.22 0.20 0.18 0.17 0.15 0.14 0.13 0.12 0.12 0.11 0.11 0.10
0.33 0.33 0.34 0.34 0.33 0.33 0.33 0.33 0.33 0.32 0.31 0.31 0.31 0.32 0.33 0.32 0.31 0.31 0.31 0.30 0.28 0.25 0.22 0.19 0.17 0.16 0.15 0.15 0.14 0.13 0.12 0.12 0.12 0.11 0.11 0.11 0.11 0.10 0.10 0.10 0.10 0.09 0.09
0.31 0.30 0.29 0.29 0.29 0.28 0.27 0.27 0.26 0.25 0.24 0.23 0.22 0.21 0.20 0.18 0.16 0.15 0.14 0.13 0.13 0.13 0.13 0.12 0.11 0.11 0.11 0.11 0.11 0.10 0.10 0.10 0.10 0.10 0.10 0.10 0.09 0.09 0.09 0.09 0.09 0.08 0.08
0.22 0.22 0.22 0.21 0.21 0.21 0.20 0.20 0.19 0.17 0.16 0.15 0.14 0.13 0.13 0.13 0.13 0.12 0.12 0.11 0.11 0.11 0.11 0.11 0.11 0.10 0.11 0.10 0.10 0.10 0.09 0.09 0.09 0.09 0.08 0.08 0.08 0.08 0.08 0.08 0.08 0.08 0.07
0.17 0.17 0.17 0.17 0.17 0.16 0.15 0.14 0.14 0.13 0.13 0.12 0.12 0.12 0.11 0.11 0.11 0.11 0.11 0.11 0.11 0.11 0.11 0.10 0.10 0.10 0.09 0.09 0.09 0.09 0.09 0.09 0.08 0.08 0.08 0.08 0.08 0.08 0.08 0.08 0.08 0.07 0.08
0.16 0.15 0.15 0.14 0.14 0.13 0.13 0.13 0.12 0.12 0.12 0.11 0.11 0.11 0.10 0.10 0.10 0.10 0.10 0.10 0.09 0.09 0.09 0.09 0.09 0.09 0.09 0.08 0.08 0.08 0.08 0.08 0.08 0.08 0.08 0.08 0.07 0.07 0.07 0.07 0.08 0.08 0.08
0.14 0.14 0.13 0.13 0.12 0.12 0.11 0.11 0.11 0.10 0.10 0.10 0.10 0.10 0.09 0.09 0.09 0.09 0.09 0.08 0.08 0.09 0.09 0.09 0.09 0.09 0.08 0.08 0.08 0.08 0.08 0.08 0.08 0.08 0.08 0.08 0.07 0.07 0.07 0.07 0.08 0.08 0.08
Wind_Speed
19 18 18 17 16 16 16 15 15 16 16 17 19 21 22 24 25 25 26 27 28 29 30 32 35 36 36 37 37 37 36 35 36 38 37 37 36 37 37 37 38 39 41
19 19 19 19 19 19 18 18 18 18 18 19 20 21 22 24 25 26 28 29 30 30 31 31 32 33 34 36 38 39 40 40 39 39 37 38 40 39 41 41 43 45 46
20 20 20 20 21 21 22 21 21 21 21 21 22 22 23 24 26 27 29 30 31 32 32 33 34 34 35 35 36 37 39 41 41 41 41 41 41 42 43 44 44 45 46
22 22 22 22 22 23 24 25 25 25 25 25 26 26 26 27 28 29 31 32 34 35 35 36 37 37 38 38 38 38 39 40 41 43 43 44 44 43 43 43 44 45 47
19 20 21 22 23 24 26 26 27 28 28 28 29 29 30 31 31 32 33 34 35 37 38 38 40 41 41 41 41 41 42 43 43 44 45 45 45 44 43 44 45 44 45
13 15 19 21 24 25 25 28 28 30 31 31 32 32 33 34 35 36 36 36 37 38 39 40 41 42 43 44 45 46 46 45 45 45 45 46 46 45 45 45 45 44 43
13 14 16 17 19 21 24 28 29 31 32 34 34 35 36 36 37 38 39 40 40 41 42 42 42 42 43 44 45 46 48 48 49 47 47 47 47 46 46 46 46 46 47
14 16 18 20 21 22 23 24 28 29 32 35 36 37 38 39 39 40 40 41 42 43 44 44 45 45 45 44 45 46 47 48 50 50 51 50 49 47 48 48 48 46 45
16 17 18 19 21 23 25 27 29 30 32 35 37 40 40 41 41 42 42 42 43 44 45 45 45 46 47 46 47 48 47 46 46 46 47 48 48 49 49 48 47 46 45
17 19 19 20 21 23 24 25 27 29 31 34 36 36 36 40 40 42 46 48 48 47 47 47 48 48 47 48 49 49 48 48 46 46 45 45 46 46 47 48 49 52 48
19 19 20 21 22 23 24 25 26 27 29 30 31 33 35 38 40 42 43 44 46 48 47 49 48 49 49 50 51 51 50 47 45 45 45 45 44 44 44 45 44 44 46
20 20 21 22 22 22 23 24 24 25 26 28 29 31 33 35 37 39 40 42 44 43 43 44 44 47 47 45 46 47 47 47 46 45 45 44 43 42 41 40 40 40 39
21 20 21 21 22 23 23 24 25 26 27 28 29 30 32 34 36 37 36 37 39 40 41 40 41 41 41 41 43 40 41 39 41 42 42 41 40 39 39 37 37 36 37
20 21 21 21 21 22 22 23 24 26 27 28 28 29 31 32 34 36 36 35 35 36 38 38 38 39 35 36 33 35 38 36 37 34 36 37 35 35 34 34 35 36 35
19 20 20 21 21 21 21 22 23 24 25 26 27 27 29 30 30 32 33 34 35 33 33 35 34 34 32 32 34 34 32 31 31 32 31 33 29 27 28 29 30 30 30
19 20 21 22 22 23 23 23 22 22 23 23 23 24 25 25 25 26 26 27 28 28 28 28 29 30 29 28 27 27 27 27 28 27 27 26 27 27 28 28 27 27 28
20 21 22 22 23 23 23 24 24 24 23 23 23 23 22 23 23 22 21 20 20 21 22 21 22 22 22 23 24 22 24 23 24 25 26 27 27 28 28 28 29 30 30
21 21 22 22 22 22 23 23 23 23 24 24 23 22 22 21 20 19 18 16 15 15 15 16 17 16 18 18 18 21 22 22 24 25 25 26 26 27 27 28 29 30 31
22 22 22 22 22 22 22 22 22 23 23 23 23 22 21 20 19 18 17 16 16 15 15 15 16 17 17 17 18 18 20 21 23 23 24 25 25 26 26 27 28 29 30
23 23 23 23 23 23 23 23 23 23 23 22 22 22 22 21 20 19 18 17 17 17 16 16 17 18 19 20 20 21 21 21 22 23 23 24 25 26 26 27 28 30 31
23 23 23 23 22 23 22 23 23 22 22 22 22 22 21 20 20 20 20 20 19 19 19 19 19 20 20 20 21 21 22 22 23 24 25 26 26 26 27 28 29 30 31
22 22 22 23 23 23 23 23 22 22 22 22 22 21 20 20 21 20 20 20 21 20 21 21 21 21 21 22 22 23 23 24 25 26 26 27 27 28 29 29 30 31 32
23 23 23 23 23 23 23 23 22 22 21 21 20 20 20 20 20 20 20 20 20 21 22 22 23 23 23 24 24 25 26 27 28 28 29 29 29 30 30 30 30 31 32
22 22 21 21 21 20 20 20 20 20 19 19 19 20 20 20 21 21 22 23 23 23 24 24 24 25 25 26 27 28 28 29 29 30 30 30 30 30 30 30 31 31 31
19 19 19 19 19 19 19 19 19 19 20 20 20 21 21 22 22 23 23 24 25 25 26 26 26 27 28 29 29 29 30 30 30 30 30 30 30 30 30 30 30 30 30
20 20 20 20 20 20 20 20 21 21 22 22 23 23 24 24 25 25 26 27 27 27 27 28 29 29 30 30 30 30 30 30 30 30 30 30 30 30 29 29 29 29 29
Wind_Direction
220 221 223 224 225 226 228 228 228 229 229 228 229 230 233 233 234 235 237 238 240 244 245 244 247 249 251 252 253 253 252 255 265 264 263 263 266 267 266 266 266 266 268
224 226 228 230 232 233 234 235 235 235 235 235 236 237 237 238 239 240 241 243 244 246 248 249 249 250 252 253 254 254 254 259 263 264 264 264 266 266 267 268 270 269 271
228 230 232 234 236 238 240 240 240 240 241 242 242 243 243 243 244 245 246 246 248 249 250 250 252 252 254 255 256 256 257 259 262 264 266 266 268 268 269 270 271 272 272
232 235 237 239 241 243 245 245 245 245 245 246 246 247 248 249 250 250 250 251 252 253 254 254 254 254 255 256 257 258 260 261 263 265 267 268 269 270 270 271 272 273 274
236 239 241 244 246 248 247 248 248 249 249 250 251 251 252 253 253 254 255 255 256 256 256 257 257 257 257 258 259 261 262 263 264 266 268 269 270 270 270 272 272 274 274
245 249 250 253 253 254 253 251 251 251 252 253 253 255 256 256 257 256 257 258 259 259 259 259 259 260 260 260 260 261 261 262 264 266 268 269 270 270 271 271 272 273 275
257 259 261 264 265 262 263 257 256 256 255 255 255 257 258 258 259 258 258 260 260 260 260 261 261 262 262 262 262 262 262 262 263 265 267 268 270 270 272 271 271 272 273
264 269 273 272 270 269 269 267 264 264 262 260 259 260 260 261 261 261 261 260 261 261 261 261 262 263 262 262 263 263 263 264 264 265 267 269 270 272 271 272 272 271 273
272 276 280 279 277 276 273 271 271 270 269 267 266 263 263 264 263 263 261 261 262 263 263 262 263 264 263 263 263 264 265 264 266 266 267 270 271 272 271 271 271 269 272
277 280 282 282 284 283 281 278 278 276 274 272 272 270 268 268 267 269 265 262 263 264 265 265 264 264 264 263 263 263 264 264 264 266 267 271 272 273 272 271 269 270 268
278 282 285 287 285 286 285 283 282 282 281 279 276 274 272 272 271 272 270 266 266 266 266 264 267 266 265 265 264 264 264 263 263 265 266 270 273 274 277 272 273 270 268
279 282 286 289 288 289 289 289 288 287 285 285 283 281 278 277 279 277 274 271 268 268 269 268 269 268 266 267 267 263 260 259 262 263 266 269 271 273 274 273 272 272 273
279 282 285 288 291 291 291 292 291 291 289 289 288 287 285 282 281 281 280 275 270 267 267 269 272 271 269 269 266 266 260 259 262 265 262 268 266 273 269 272 273 275 273
280 282 284 288 291 292 292 295 296 296 295 294 293 292 291 289 286 283 280 278 274 270 268 269 272 273 266 273 264 269 271 268 263 266 264 266 267 269 269 273 275 273 276
281 282 283 285 289 291 296 298 299 303 301 298 299 299 296 295 294 291 284 279 275 273 270 271 271 269 274 274 276 269 268 267 269 270 272 268 268 275 277 280 281 280 279
283 284 284 285 287 288 290 293 301 304 307 308 308 305 306 306 303 301 295 287 279 275 272 273 272 275 273 272 270 270 270 269 270 269 273 271 276 279 279 282 282 283 284
286 285 285 286 287 287 289 291 292 296 303 308 310 310 312 312 311 308 306 300 289 276 275 276 277 279 278 276 270 272 275 272 270 273 276 277 279 280 282 282 283 284 285
289 289 288 287 288 288 289 290 292 294 296 300 304 307 309 310 312 313 311 305 301 293 283 281 283 284 283 284 281 272 276 277 277 277 277 282 283 284 284 283 285 286 286
288 288 288 287 288 288 289 290 291 293 296 297 298 300 302 303 306 308 307 302 299 297 292 288 285 285 287 284 282 284 281 283 283 284 283 284 286 286 287 287 288 290 292
287 287 287 287 287 288 289 290 290 292 293 294 296 297 296 296 299 297 297 297 296 294 292 291 290 288 286 286 284 285 286 286 287 286 287 288 289 289 289 291 292 293 295
287 287 286 287 287 288 288 289 289 289 290 292 294 294 294 293 293 292 290 291 292 291 291 291 291 290 289 288 287 288 288 288 289 290 290 290 291 291 292 293 293 295 296
286 286 286 286 286 286 287 287 288 289 289 289 290 291 292 290 289 289 289 289 289 290 290 290 290 291 291 291 290 290 291 291 292 292 292 292 293 293 293 294 295 296 297
286 286 285 286 285 285 286 286 286 288 287 287 288 290 289 290 289 288 289 289 290 291 292 292 291 290 291 291 292 292 292 292 292 292 292 292 292 293 293 294 295 297 298
286 286 286 287 286 287 287 287 286 287 287 287 287 289 290 290 290 290 289 289 290 292 292 293 292 291 291 292 292 292 292 292 292 292 292 291 291 292 292 293 295 297 298
288 287 288 288 287 288 289 288 287 287 287 287 288 289 290 290 290 290 289 290 291 291 292 291 291 290 291 291 292 292 292 292 292 292 292 291 291 292 292 293 295 297 298
287 287 286 286 286 286 286 286 286 286 287 287 287 288 289 289 289 290 289 290 290 291 291 291 290 290 291 291 291 292 292 292 292 292 291 291 291 291 292 293 294 296 297